Overview Statistics Trail Chart Weather Telemetry Raw packets
 

This is the latest recevied weather packets stored in our database for station/object SV4JYD-13. If no packets are shown the sender has not sent any weather packets the latest 10 day(s).

<< 1 2 3 4 5 >>
Time Temp. Humidity Pressure Rain* Wind** Luminosity Snow
1778005010 20° C 71% 1014 hPa 0 mm - - -
1778004110 20.56° C 69% 1015 hPa 0 mm - - -
1778003210 21.11° C 53% 1015 hPa 0 mm - - -
1778002309 21.67° C 71% 1014 hPa 0 mm - - -
1778001409 21.11° C 10% - 0 mm - - -
1778000509 21.67° C 10% - 0 mm - - -
1777999608 22.22° C 10% - 0 mm - - -
1777998708 23.89° C 38% 1014 hPa 0 mm - - -
1777997808 24.44° C 39% 1014 hPa 0 mm - - -
1777996908 24.44° C 39% 1014 hPa 0 mm - - -
1777996007 24.44° C 39% 1015 hPa 0 mm - - -
1777995107 24.44° C 38% 1015 hPa 0 mm - - -
1777994207 24.44° C 38% 1015 hPa 0 mm - - -
1777993306 24.44° C 39% 1015 hPa 0 mm - - -
1777992406 24.44° C 40% 1015 hPa 0 mm - - -
1777991506 23.89° C 41% 1015 hPa 0 mm - - -
1777990605 24.44° C 43% 1015 hPa 0 mm - - -
1777989705 24.44° C 43% 1015 hPa 0 mm - - -
1777988805 23.89° C 43% 1015 hPa 0 mm - - -
1777987904 24.44° C 46% 1015 hPa 0 mm - - -
1777987004 26.67° C 38% 1015 hPa 0 mm - - -
1777986104 19.44° C 40% 1015 hPa 0 mm - - -
1777985204 20° C 40% 1015 hPa 0 mm - - -
1777984303 20.56° C 40% 1016 hPa 0 mm - - -
1777983403 21.11° C 40% 1016 hPa 0 mm - - -

* Rain latest hour (hover to see other rain measurements)
** Current wind speed in m/s (hover to see current wind gust speed)